[[{"header":{"parameterUnit":"m.s-1","parameterCategory":1,"la1":30.2991,"la2":30.254,"lo1":-89.0895,"lo2":-89.0444,"dy":0.0017,"dx":0.0017,"nx":28,"ny":28,"refTime":"2023-08-04T09:00:00:Z","depth":0,"parameterNumber":2,"parameterNumberName":"U-component_of_WINDS"},"data":[0,0,0,0,0,0,0,0,0,0,0,0,0,0,0,0,0,0,0,0,0,0,0,0,0,0,0,0,0,0,0,0,0,0,0,0,0,0,0,0,0,0,0,0,0,0,0,0,0,0,0,0,0,0,0,0,0,0,2.1123,2.1124,0,2.1184,2.1185,2.1185,2.1148,2.1146,2.1145,2.1143,2.1204,2.1207,2.121,0,0,0,0,0,0,0,0,0,0,0,0,0,2.0971,2.0974,2.1123,2.1124,2.1124,2.1184,2.1185,2.1185,2.1149,2.1146,2.1144,2.1142,2.1203,2.1207,2.1211,0,0,0,0,0,0,0,0,0,0,0,0,0,2.1035,2.0975,2.1123,2.1113,2.1113,2.1184,2.1185,2.1186,2.1149,2.1146,2.1144,2.1141,2.1202,2.1206,2.1211,2.1294,0,0,2.1226,2.1228,0,0,0,0,0,0,0,0,2.1031,2.104,2.1114,2.1114,2.1114,2.1156,2.1153,2.1222,2.115,2.1135,2.1143,2.114,2.119,2.1196,2.1213,2.1297,2.13,2.1226,2.1229,2.1232,2.1233,0,0,0,0,0,0,0,2.1027,2.1038,2.1147,2.1115,2.1115,2.1105,2.1111,2.1166,2.1177,2.1136,2.1134,2.1142,2.1189,2.1208,2.1214,2.13,2.1226,2.1231,2.1234,2.1236,2.1451,2.1454,0,0,0,0,0,0,2.1024,2.1034,2.1145,2.1149,2.1065,2.111,2.1116,2.1145,2.1176,2.1178,2.1144,2.114,2.1201,2.1208,2.1216,2.1312,2.1232,2.1236,2.1239,2.1449,2.1452,2.1455,0,0,0,0,0,0,2.102,2.1034,2.1143,2.1091,2.1104,2.1115,2.1147,2.1148,2.1166,2.1182,2.1183,2.1161,2.1199,2.1209,2.1274,2.1313,2.1238,2.1243,2.1445,2.145,2.1453,2.1506,0,0,0,0,0,0,2.1016,2.1033,2.1066,2.1092,2.1107,2.1201,2.115,2.1151,2.1175,2.117,2.1198,2.12,2.1198,2.1267,2.1279,2.1319,2.1247,2.1442,2.1447,2.1452,2.1501,2.1512,2.1521,0,0,0,0,0,2.1011,2.1079,2.1068,2.1081,2.1148,2.1203,2.1212,2.1208,2.1178,2.121,2.1219,2.1199,2.1308,2.1274,2.1287,2.1329,2.1439,2.1446,2.1452,2.1497,2.151,2.1521,0,0,0,0,0,0,2.1057,2.1082,2.107,2.1148,2.1174,2.1197,2.1237,2.1223,2.1257,2.1251,2.1244,2.1251,2.1318,2.1331,2.1292,2.1409,2.1369,2.1378,2.1398,2.1411,2.1421,2.1415,2.1251,0,0,0,0,0,2.1076,2.112,2.1139,2.1206,2.122,2.1227,2.1251,2.1245,2.1271,2.1282,2.1296,2.1322,2.1361,2.1387,2.1424,2.1503,2.1507,2.1538,2.1548,2.1556,2.1564,2.1603,2.1616,2.1476,2.1476,2.1475,0,0,2.1116,2.1135,2.1164,2.1216,2.1235,2.1279,2.1236,2.1285,2.1316,2.1289,2.135,2.1362,2.139,2.1461,2.1493,2.1473,2.1603,2.1565,2.1571,2.1574,2.161,2.1624,2.1635,2.148,2.1479,2.1478,0,0,2.1211,2.1232,2.1288,2.1308,2.1337,2.134,2.1354,2.1379,2.1385,2.1447,2.1426,2.1464,2.1533,2.1552,2.1571,2.167,2.1652,2.1683,2.1734,2.1772,2.1783,2.1793,2.1825,2.1837,2.1691,2.1691,2.1691,0,2.1257,2.1323,2.1319,2.1368,2.139,2.1368,2.1423,2.1442,2.1483,2.1498,2.1475,2.1559,2.1576,2.165,2.1674,2.1691,2.1704,2.1679,2.1782,2.1792,2.1801,2.1831,2.1843,2.1694,2.1694,2.1693,2.1693,0,2.1376,2.1422,2.1464,2.1502,2.1529,2.1582,2.1583,2.1612,2.1604,2.1609,2.167,2.169,2.1729,2.1747,2.174,2.1819,2.1805,2.1783,2.1741,2.1817,2.1845,2.1857,2.1699,2.1698,2.1697,2.1696,0,0,2.1501,2.1535,2.155,2.1566,2.1596,2.163,2.1681,2.1719,2.1741,2.177,2.1809,2.1867,2.1846,2.1867,2.1862,2.1896,2.1969,2.1869,2.1869,2.1884,2.2053,2.2067,2.2081,2.1958,2.196,2.1962,2.2049,0,2.1595,2.1683,2.1679,2.1761,2.1801,2.1779,2.1822,2.1844,2.185,2.1884,2.1891,2.193,2.1901,2.1913,2.1946,2.1953,2.2002,2.1947,2.1992,2.1994,2.1983,2.2097,2.2113,2.2194,2.2061,2.2063,2.2064,0,2.1716,2.1747,2.1832,2.1853,2.187,2.1909,2.1942,2.1976,2.1999,2.2001,2.2024,2.2013,2.2061,2.2021,2.2086,2.2048,2.2067,2.2073,2.2076,2.2078,2.2032,2.2098,2.2221,2.2231,2.2082,2.2081,2.2079,0,2.1794,2.1858,2.1916,2.193,2.1957,2.1984,2.1997,2.2018,2.204,2.2069,2.2083,2.2117,2.2135,2.2162,2.2159,2.213,2.2224,2.2184,2.2225,2.2224,2.2243,2.2242,2.2367,2.226,2.226,2.226,2.226,0,2.1897,2.195,2.1951,2.1986,2.2043,2.2038,2.2094,2.2103,2.2122,2.2157,2.2142,2.2175,2.2171,2.2204,2.2203,2.2255,2.2264,2.2265,2.2264,2.2265,2.2264,2.2275,2.2268,2.2263,2.2263,2.2262,2.2261,0,2.1994,2.1997,2.2058,2.2078,2.2084,2.2125,2.2141,2.2174,2.2178,2.2223,2.2233,2.2239,2.2277,2.2278,2.2322,2.2321,2.2383,2.2377,2.2375,2.2373,2.2412,2.2407,2.2546,2.2563,2.2448,2.245,2.245,0,2.2058,2.2097,2.2121,2.2143,2.2157,2.2194,2.2216,2.2212,2.2236,2.2264,2.2293,2.2329,2.2358,2.2419,2.2427,2.2459,2.2451,2.2498,2.2456,2.2455,2.2448,2.2444,2.2447,2.2505,2.2507,2.2508,2.2508,0,2.217,2.2169,2.2202,2.2235,2.2262,2.2287,2.2311,2.233,2.2329,2.2356,2.2394,2.2416,2.246,2.2495,2.2526,2.2537,2.2522,2.2522,2.2532,2.2533,2.2528,2.2528,2.2394,2.2518,2.2517,2.2516,2.2516,2.2516,2.225,2.2283,2.2304,2.234,2.2357,2.2379,2.2409,2.2417,2.2449,2.2484,2.248,2.2522,2.2542,2.2582,2.2595,2.2627,2.261,2.2627,2.263,2.2633,2.2636,2.2526,2.2633,2.2633,2.2632,2.2632,2.2632,0,2.2359,2.2371,2.2404,2.2437,2.2465,2.2449,2.2473,2.2497,2.2534,2.2555,2.2582,2.2625,2.2658,2.2669,2.27,2.2723,2.2717,2.2732,2.2728,2.273,2.2651,2.2637,2.2736,2.2736,2.2736,2.2736,2.2736,2.2736,2.2418,2.2471,2.2473,2.2533,2.2544,2.2585,2.26,2.2619,2.2635,2.2683,2.271,2.2717,2.2732,2.2765,2.2794,2.2796,2.2807,2.2824,2.2823,2.2747,2.2737,2.2726,2.2713,2.2827,2.2827,2.2899,2.29,2.29]},{"header":{"parameterUnit":"m.s-1","parameterCategory":1,"la1":30.2991,"la2":30.254,"lo1":-89.0895,"lo2":-89.0444,"dy":0.0017,"dx":0.0017,"nx":28,"ny":28,"refTime":"2023-08-04T09:00:00:Z","depth":0,"parameterNumber":3,"parameterNumberName":"V-component_of_WINDS"},"data":[0,0,0,0,0,0,0,0,0,0,0,0,0,0,0,0,0,0,0,0,0,0,0,0,0,0,0,0,0,0,0,0,0,0,0,0,0,0,0,0,0,0,0,0,0,0,0,0,0,0,0,0,0,0,0,0,0,0,3.3854,3.3855,0,3.3927,3.3927,3.3928,3.3884,3.3882,3.388,3.3878,3.3947,3.3951,3.3955,0,0,0,0,0,0,0,0,0,0,0,0,0,3.367,3.3673,3.3854,3.3855,3.3856,3.3926,3.3927,3.3928,3.3884,3.3882,3.3879,3.3877,3.3946,3.3951,3.3955,0,0,0,0,0,0,0,0,0,0,0,0,0,3.3747,3.3675,3.3853,3.3842,3.3842,3.3926,3.3927,3.3929,3.3885,3.3882,3.3878,3.3875,3.3945,3.395,3.3956,3.4054,0,0,3.3973,3.3976,0,0,0,0,0,0,0,0,3.3742,3.3753,3.3843,3.3843,3.3843,3.3893,3.3888,3.3971,3.3886,3.3868,3.3878,3.3874,3.3932,3.3938,3.3959,3.4057,3.406,3.3974,3.3977,3.398,3.3981,0,0,0,0,0,0,0,3.3737,3.375,3.3882,3.3844,3.3844,3.3831,3.3839,3.3903,3.3916,3.387,3.3867,3.3876,3.3931,3.3953,3.396,3.4061,3.3974,3.3979,3.3982,3.3985,3.4241,3.4244,0,0,0,0,0,0,3.3733,3.3746,3.388,3.3884,3.3784,3.3837,3.3845,3.388,3.3916,3.3918,3.3879,3.3874,3.3945,3.3953,3.3962,3.4077,3.398,3.3985,3.3988,3.4237,3.4241,3.4245,0,0,0,0,0,0,3.373,3.3746,3.3877,3.3814,3.383,3.3844,3.3883,3.3883,3.3905,3.3923,3.3924,3.3899,3.3943,3.3954,3.4031,3.4079,3.3988,3.3993,3.4233,3.4239,3.4243,3.4309,0,0,0,0,0,0,3.3725,3.3745,3.3784,3.3816,3.3834,3.3947,3.3886,3.3887,3.3916,3.391,3.3943,3.3945,3.3941,3.4023,3.4037,3.4085,3.3997,3.4229,3.4236,3.4242,3.4303,3.4316,3.4327,0,0,0,0,0,3.3718,3.3799,3.3786,3.3803,3.3883,3.395,3.396,3.3956,3.392,3.3958,3.3969,3.3944,3.4072,3.4031,3.4046,3.4097,3.4226,3.4234,3.4241,3.4297,3.4313,3.4327,0,0,0,0,0,0,3.3772,3.3803,3.3789,3.3884,3.3915,3.3942,3.3991,3.3973,3.4014,3.4006,3.3998,3.4005,3.4085,3.4099,3.4053,3.4192,3.4143,3.4154,3.418,3.4196,3.4208,3.4202,3.4002,0,0,0,0,0,3.3795,3.3848,3.3872,3.3953,3.3969,3.3977,3.4006,3.4,3.4031,3.4044,3.406,3.409,3.4136,3.4167,3.4211,3.4305,3.4309,3.4347,3.4359,3.4369,3.4378,3.4426,3.4442,3.427,3.427,3.427,0,0,3.3842,3.3866,3.39,3.3964,3.3988,3.404,3.3989,3.4048,3.4086,3.4052,3.4125,3.4139,3.4171,3.4256,3.4294,3.427,3.4427,3.4379,3.4387,3.439,3.4435,3.4451,3.4466,3.4275,3.4274,3.4273,0,0,3.3956,3.3981,3.4049,3.4074,3.411,3.4114,3.4131,3.4161,3.4169,3.4243,3.4217,3.4262,3.4343,3.4366,3.4389,3.4509,3.4486,3.4523,3.4586,3.4633,3.4646,3.4658,3.4698,3.4713,3.4532,3.4533,3.4533,0,3.401,3.4091,3.4087,3.4147,3.4174,3.4147,3.4215,3.4238,3.4286,3.4304,3.4277,3.4376,3.4396,3.4485,3.4514,3.4534,3.455,3.4519,3.4645,3.4657,3.4668,3.4706,3.4721,3.4537,3.4536,3.4536,3.4535,0,3.4154,3.4211,3.4261,3.4309,3.4342,3.4406,3.4409,3.4443,3.4433,3.444,3.4513,3.4536,3.4583,3.4604,3.4595,3.4691,3.4674,3.4646,3.4596,3.4688,3.4724,3.4739,3.4542,3.4541,3.454,3.4539,0,0,3.4304,3.4348,3.4366,3.4386,3.4423,3.4465,3.4527,3.4574,3.4601,3.4635,3.4684,3.4752,3.4726,3.4751,3.4745,3.4786,3.4876,3.4752,3.4753,3.4772,3.4979,3.4999,3.5016,3.4862,3.4865,3.4867,3.4976,0,3.4418,3.4527,3.4523,3.4623,3.4673,3.4647,3.47,3.4727,3.4734,3.4776,3.4783,3.4831,3.4794,3.4808,3.4848,3.4857,3.4917,3.4849,3.4905,3.4907,3.4896,3.5035,3.5057,3.5159,3.499,3.4992,3.4994,0,3.4566,3.4605,3.471,3.4737,3.4758,3.4806,3.4847,3.4888,3.4917,3.4919,3.4947,3.4933,3.4992,3.4941,3.5021,3.4975,3.4997,3.5004,3.5008,3.5012,3.4955,3.504,3.5191,3.5206,3.5016,3.5015,3.5013,0,3.4662,3.474,3.4813,3.4831,3.4865,3.4899,3.4914,3.494,3.4968,3.5003,3.502,3.5062,3.5084,3.5116,3.5112,3.5076,3.5192,3.5142,3.5193,3.5193,3.5218,3.5216,3.5372,3.5236,3.5235,3.5235,3.5235,0,3.4788,3.4853,3.4856,3.4901,3.4971,3.4965,3.5035,3.5046,3.5069,3.5113,3.5093,3.5135,3.5128,3.5169,3.5167,3.5231,3.5242,3.5244,3.5242,3.5245,3.5244,3.5258,3.525,3.5239,3.5238,3.5237,3.5237,0,3.4907,3.4912,3.4989,3.5014,3.5022,3.5073,3.5094,3.5134,3.5139,3.5195,3.5208,3.5216,3.5263,3.5263,3.5316,3.5314,3.5392,3.5384,3.5383,3.5381,3.5431,3.5426,3.56,3.5622,3.5473,3.5475,3.5476,0,3.4987,3.5036,3.5067,3.5095,3.5113,3.516,3.5188,3.5183,3.5212,3.5247,3.5283,3.5328,3.5364,3.544,3.5448,3.5488,3.5479,3.5537,3.5485,3.5485,3.5477,3.5473,3.5477,3.5547,3.5549,3.555,3.5551,0,3.5127,3.5126,3.5168,3.521,3.5244,3.5277,3.5307,3.5331,3.5329,3.5363,3.5411,3.5439,3.5493,3.5537,3.5575,3.5588,3.5569,3.5568,3.5581,3.5584,3.5581,3.5581,3.5409,3.5564,3.5562,3.5562,3.5561,3.556,3.5227,3.5268,3.5296,3.5342,3.5364,3.5392,3.5431,3.5441,3.5482,3.5526,3.552,3.5573,3.5598,3.5647,3.5664,3.5703,3.5682,3.5703,3.5708,3.5712,3.5717,3.5576,3.571,3.571,3.571,3.5709,3.5709,0,3.5364,3.538,3.5423,3.5465,3.5501,3.5481,3.5513,3.5543,3.559,3.5616,3.5651,3.5705,3.5747,3.5759,3.5799,3.5828,3.582,3.5838,3.5835,3.5838,3.5734,3.5717,3.5844,3.5844,3.5844,3.5844,3.5844,3.5844,3.5439,3.5507,3.551,3.5587,3.5603,3.5655,3.5674,3.5699,3.5719,3.578,3.5815,3.5823,3.5842,3.5883,3.592,3.5922,3.5937,3.5959,3.5957,3.5859,3.5846,3.5833,3.5817,3.5962,3.5963,3.6057,3.6058,3.6059]}]]